Weather WX

World > North America > United States > Ohio

Bainbridge Township, Ohio Regional Weather

Lat: 41.39N, Lon: 81.31W
Wx Zone: OHZ013
Feedback

Bainbridge Township, OH Regional Weather

Expires:201907160700;;714493
ASUS41 KCLE 160600
RWRCLE
OHIO REGIONAL WEATHER ROUNDUP
NATIONAL WEATHER SERVICE WILMINGTON, OH
200 AM EDT TUE JUL 16 2019

NOTE: "FAIR" INDICATES FEW OR NO CLOUDS BELOW 12,000 FEET WITH NO
SIGNIFICANT WEATHER AND/OR OBSTRUCTIONS TO VISIBILITY.


OHZ009>014-019>023-028>033-038-089-160700-
   NORTHEAST OHIO
  
CITY           SKY/WX    TMP DP  RH WIND       PRES   REMARKS
CLE-HOPKINS    CLOUDY    76  70  82 SW7       30.07S                  
CLE-LAKEFRONT  FAIR      77  68  73 S6        30.04R                  
CUY CO. ARPT   NOT AVBL                                               
LORAIN-ELYRIA  FAIR      74  66  76 SW7       30.07R                  
ASHTABULA      FAIR      70  66  87 CALM      30.07S                  
AKRON-CANTON   FAIR      73  69  87 SW7       30.09R                  
WOOSTER        NOT AVBL                                               
MANSFIELD      FAIR      73  71  93 S6        30.10S                  
YOUNGSTOWN     CLOUDY    73  66  78 SW3       30.08S                  
$$
 

SKY/WX - Weather  TMP - Temperature  DP - Dew Point  RH - Relative Humidity
WIND - Wind Direction/Speed PRES - Barometric Pressure VSB - Visibility
WCI - Wind Chill Index E13G22 Wind - East Wind 13 mph/Gusts of 22 mph